This demonstration page uses our WeatherBlox Daily Observations layout. Learn more.

Left ArrowRight Arrow

Hourly Observations for March 16, 2019

Temp ( °F °C ) Dew Point ( °F °C ) Humidity (%) Winds ( mph kmh ) Pressure ( in mb ) Visibility ( mi km ) Precip ( " mm )
12:57 am 00:57 Clear 33 0.6 25 -3.9 72 72 SW 7 11 30.37 1029 10 16 0.00 0.00
1:57 am 01:57 Clear 32 0 25 -3.9 75 75 SW 9 15 30.37 1028 10 16 0.00 0.00
2:57 am 02:57 Clear 32 0 26 -3.3 79 79 SW 8 13 30.36 1028 10 16 0.00 0.00
3:57 am 03:57 Clear 31 -0.6 26 -3.3 82 82 SW 8 13 30.35 1028 10 16 0.00 0.00
4:57 am 04:57 Clear 29 -1.7 26 -3.3 89 89 WSW 3 6 30.35 1028 10 16 0.00 0.00
6:57 am 06:57 Clear 30 -1.1 25 -3.9 82 82 WSW 7 11 30.36 1028 10 16 0.00 0.00
7:57 am 07:57 Sunny 31 -0.6 25 -3.9 79 79 WNW 7 11 30.37 1029 10 16 0.00 0.00
8:57 am 08:57 Sunny 32 0 26 -3.3 79 79 W 6 9 30.39 1029 10 16 0.00 0.00
9:57 am 09:57 Sunny 37 2.8 27 -2.8 67 67 WNW 10 17 30.40 1030 10 16 0.00 0.00
10:57 am 10:57 Sunny 40 4.4 29 -1.7 65 65 NW 14 22 30.40 1029 10 16 0.00 0.00
11:57 am 11:57 Sunny 42 5.6 29 -1.7 60 60 NNW 14 22 30.41 1030 10 16 0.00 0.00
12:57 pm 12:57 Sunny 44 6.7 30 -1.1 58 58 NNW 12 19 30.40 1029 10 16 0.00 0.00
1:57 pm 13:57 Sunny 48 8.9 30 -1.1 50 50 NNW 12 19 30.39 1029 10 16 0.00 0.00
2:57 pm 14:57 Sunny 48 8.9 29 -1.7 48 48 NW 9 15 30.37 1028 10 16 0.00 0.00
4:57 pm 16:57 Sunny 51 10.6 26 -3.3 38 38 NNW 14 22 30.35 1028 10 16 0.00 0.00
5:57 pm 17:57 Sunny 49 9.4 26 -3.3 41 41 N 16 26 30.34 1028 10 16 0.00 0.00
6:57 pm 18:57 Sunny 46 7.8 31 -0.6 56 56 N 17 28 30.35 1028 10 16 0.00 0.00
7:57 pm 19:57 Clear 41 5 29 -1.7 62 62 N 9 15 30.38 1029 10 16 0.00 0.00
8:57 pm 20:57 Clear 37 2.8 28 -2.2 70 70 N 3 6 30.39 1029 10 16 0.00 0.00
9:57 pm 21:57 Clear 35 1.7 24 -4.4 64 64 N 7 11 30.40 1030 10 16 0.00 0.00
10:57 pm 22:57 Clear 33 0.6 25 -3.9 72 72 NNE 5 7 30.41 1030 10 16 0.00 0.00
11:57 pm 23:57 Clear 33 0.6 24 -4.4 70 70 Calm 30.41 1030 10 16 0.00 0.00

Powered by AerisWeather